This is the latest recevied weather packets stored in our database for station/object FW9167. If no packets are shown the sender has not sent any weather packets the latest 10 day(s).
| Time | Temp. | Humidity | Pressure | Rain* | Wind** | Luminosity | Snow |
|---|---|---|---|---|---|---|---|
| 1777669262 | 22.22° C | 31% | 1019.8 hPa | 0 mm | - | - | - |
| 1777668364 | 22.22° C | 39% | 1020 hPa | 0 mm | - | - | - |
| 1777664762 | 21.11° C | 42% | 1020.6 hPa | 0 mm | - | - | - |
| 1777661162 | 19.44° C | 43% | 1021.3 hPa | 0 mm | - | - | - |
| 1777660262 | 19.44° C | 44% | 1021.4 hPa | 0 mm | - | - | - |
| 1777658463 | 18.33° C | 45% | 1021.6 hPa | 0 mm | - | - | - |
| 1777657562 | 17.22° C | 46% | 1021.8 hPa | 0 mm | - | - | - |
| 1777653963 | 15.56° C | 55% | 1021.9 hPa | 0 mm | - | - | - |
| 1777651262 | 14.44° C | 53% | 1022.1 hPa | 0 mm | - | - | - |
| 1777646763 | 10° C | 66% | 1021.7 hPa | 0 mm | - | - | - |
| 1777644064 | 6.67° C | 76% | 1021.4 hPa | 0 mm | - | - | - |
| 1777640465 | 3.89° C | 79% | 1021 hPa | 0 mm | - | - | - |
| 1777619762 | 7.22° C | 71% | 1020.5 hPa | 0 mm | - | - | - |
| 1777618862 | 6.67° C | 75% | 1020.4 hPa | 0 mm | - | - | - |
| 1777614364 | 9.44° C | 60% | 1020.1 hPa | 0 mm | - | - | - |
| 1777612562 | 12.22° C | 52% | 1019.8 hPa | 0 mm | - | - | - |
| 1777611664 | 12.22° C | 52% | 1019.5 hPa | 0 mm | - | - | - |
| 1777606263 | 12.22° C | 54% | 1019 hPa | 0 mm | - | - | - |
| 1777603563 | 12.22° C | 57% | 1018.7 hPa | 0 mm | - | - | - |
| 1777590964 | 21.67° C | 28% | 1019.5 hPa | 0 mm | - | - | - |
| 1777587362 | 20.56° C | 31% | 1020.1 hPa | 0 mm | - | - | - |
| 1777581962 | 20° C | 36% | 1021.1 hPa | 0 mm | - | - | - |
| 1777574765 | 17.22° C | 47% | 1022.2 hPa | 0 mm | - | - | - |
| 1777573862 | 17.22° C | 44% | 1022.4 hPa | 0 mm | - | - | - |
| 1777572963 | 16.67° C | 45% | 1022.5 hPa | 0 mm | - | - | - |
* Rain since midnight (hover to see other rain measurements)
** Current wind speed in m/s (hover to see current wind gust speed)